COSMOS 2251 DEB

Satellite information

Favourite Embed

Satellite Type and Status

DEBRISIN ORBIT

Key statistics

Satellite COSMOS 2251 DEB at a glance.

Uptime

11770

Days in orbit

Revolutions

≈ 15.0

Per day

Orbit

LEO

Low Earth Orbit

Inclination

74.0

Latest

Satellite identification and parameters

Extended collection of information and parameters for COSMOS 2251 DEB.

Object identification

Identified? True

Debris? True

Object name: COSMOS 2251 DEB

International designator: 1993-036AKA

Object number (NORAD): 35432

Object ID (CCSDS): 35432

Country: COMMONWEALTH OF INDEPENDENT STATES (CIS)

Current information (Y/N): Y

RCS size: SMALL

Orbital parameters

Period: 95.811 minutes

Inclination: 74.0267 deg

SMA: 6935.913 km

Apoapsis: 563.782 km

Periapsis: 551.775 km

RAAN: 219.1965 deg

Eccentricy: 0.00086557

Argument of periapsis: 275.3704 deg

Mean anomaly: 84.6497 deg

Mean motion: 15.02959546 rev/day

Mean motion (dot): 0.00040294 rev/day2

B* drag term: 0.0029804251 1/REarth

Two-line elements (TLE)

Creation date: Sept. 5, 2025, 7:38 p.m.

Reference frame: TEME

Reference center: EARTH

Epoch: Sept. 5, 2025, 8:33 a.m. UTC

TLE line 0: 0 COSMOS 2251 DEB

TLE line 1: 1 35432U 93036AKA 25248.35685415 .00040294 00000-0 29804-2 0 9990

TLE line 2: 2 35432 74.0267 219.1965 0008656 275.3704 84.6497 15.02959546860177

Live tracking on map

Real-time ground track for satellite COSMOS 2251 DEB.

In-orbit conjunctions

A list of the most updated potential collisions computed for object COSMOS 2251 DEB.

Target Orbit TCA Probability of collision Miss distance Type
SL-14 R/B LEO 2025-01-22 01:50:04 0.0001483236 425.0 (m) ROCKET BODY
EGYPTSAT 1 SSO 2024-11-12 18:32:16 0.0001928438 769.0 (m) PAYLOAD

Associated space launch

Military communications satellite. Destroyed in a collision with Iridium 33.

COSMOS 2251 DEB was lifted into orbit during the mission ‘Kosmos-3M | Strela-2M 51’, on board a Kosmos-3M space rocket.

The launch took place on June 16, 1993, 4:17 a.m. from 132/1 (132L).

For more information about the launch, click the button.

Launch to space Kosmos-3M | Strela-2M 51
Kosmos-3M | Strela-2M 51

Agency: N/A

Status: Launch Successful

Launch date: June 16, 1993, 4:17 a.m. UTC

Rocket: Kosmos-3M

Launch pad: 132/1 (132L)

Location: Plesetsk Cosmodrome, Russian Federation

...

Latest news about this satellite

There are no fresh news available about this satellite. Check back as we update our databases every day.


Newsletter sign-up

Weekly statistics, charts and insights to help you stay on top of the space industry.